Location: Artiguedieu
(43.5000°N, 0.5454°E)
Time: 21:25:41
(UTC+00:00)

Vanguard 1 - Pass Details

Date: 05 August 2021
Orbit: 652 x 3831 km, 34.3° (Epoch: 19 September)

Event Time Altitude Azimuth Distance (km) Brightness Sun altitude
Rises 12:12:39 0° 258° (WSW) 3,133 12.8 63.3°
Reaches altitude 10° 12:14:51 10° 248° (WSW) 2,364 12.4 63.2°
Maximum altitude 12:19:45 35° 183° (S) 1,603 12.5 63.1°
Drops below altitude 10° 12:27:21 10° 121° (ESE) 3,708 13.3 62.9°
Sets 12:31:46 0° 114° (ESE) 5,231 13.8 62.7°
